When you browse on this site, cookies collect data to enhance your experience and personalize the content and advertising you see.
Visit our Privacy Policy to learn more. By continuing to use the site, you agree to this use of cookies and data.
  • In Hungary
  • List of Countries
  • For 7 days
  • Water Temperature
  • Satellite Maps
  • Weather Map
  • News
  • Weather Widgets
  • user-avatar
    Login

    Hourly Weather Napa

    Today, 20 July, Saturday

    Time Temperature Precipitation Wind Pressure Humidity
    00:00 +15°C° 0 mm 2 mps 755 mmHg 93%
    01:00 +15°C° 0 mm 2 mps 755 mmHg 93%
    02:00 +15°C° 0 mm 2 mps 755 mmHg 93%
    03:00 +15°C° 0 mm 2 mps 756 mmHg 92%
    04:00 +16°C° 0 mm 2 mps 756 mmHg 92%
    05:00 +16°C° 0 mm 2 mps 756 mmHg 90%
    06:00 +16°C° 0 mm 2 mps 756 mmHg 87%
    07:00 +17°C° 0 mm 2 mps 756 mmHg 84%
    08:00 +19°C° 0 mm 2 mps 756 mmHg 74%
    09:00 +23°C° 0 mm 2 mps 756 mmHg 64%
    10:00 +25°C° 0 mm 2 mps 756 mmHg 54%
    11:00 +27°C° 0 mm 2 mps 756 mmHg 48%
    12:00 +29°C° 0 mm 3 mps 756 mmHg 42%
    13:00 +30°C° 0 mm 3 mps 755 mmHg 36%
    14:00 +30°C° 0 mm 3 mps 755 mmHg 38%
    15:00 +29°C° 0 mm 3 mps 755 mmHg 39%
    16:00 +28°C° 0 mm 4 mps 754 mmHg 40%
    17:00 +26°C° 0 mm 3 mps 754 mmHg 47%
    18:00 +24°C° 0 mm 3 mps 754 mmHg 54%
    19:00 +21°C° 0 mm 2 mps 754 mmHg 61%
    20:00 +19°C° 0 mm 2 mps 755 mmHg 68%
    21:00 +18°C° 0 mm 2 mps 755 mmHg 75%
    22:00 +16°C° 0 mm 2 mps 755 mmHg 82%
    23:00 +15°C° 0 mm 2 mps 755 mmHg 84%

    Tomorrow, 21 July, Sunday

    Time Temperature Precipitation Wind Pressure Humidity
    00:00 +15°C° 0 mm 1 mps 755 mmHg 87%
    01:00 +14°C° 0 mm 1 mps 755 mmHg 89%
    02:00 +14°C° 0 mm 1 mps 755 mmHg 89%
    03:00 +14°C° 0 mm 1 mps 755 mmHg 90%
    04:00 +14°C° 0 mm 1 mps 755 mmHg 91%
    05:00 +16°C° 0 mm 1 mps 755 mmHg 83%
    06:00 +18°C° 0 mm 1 mps 755 mmHg 76%
    07:00 +20°C° 0 mm 1 mps 755 mmHg 69%
    08:00 +23°C° 0 mm 1 mps 756 mmHg 58%
    09:00 +27°C° 0 mm 1 mps 756 mmHg 48%
    10:00 +30°C° 0 mm 2 mps 756 mmHg 37%
    11:00 +31°C° 0 mm 2 mps 756 mmHg 34%
    12:00 +32°C° 0 mm 2 mps 755 mmHg 31%
    13:00 +34°C° 0 mm 3 mps 755 mmHg 27%
    14:00 +34°C° 0 mm 3 mps 755 mmHg 28%
    15:00 +33°C° 0 mm 3 mps 755 mmHg 29%
    16:00 +33°C° 0 mm 3 mps 755 mmHg 30%
    17:00 +29°C° 0 mm 2 mps 755 mmHg 36%
    18:00 +27°C° 0 mm 2 mps 755 mmHg 42%
    19:00 +24°C° 0 mm 2 mps 755 mmHg 48%
    20:00 +21°C° 0 mm 2 mps 755 mmHg 56%
    21:00 +20°C° 0 mm 2 mps 755 mmHg 63%
    22:00 +18°C° 0 mm 2 mps 756 mmHg 70%
    23:00 +17°C° 0 mm 2 mps 756 mmHg 74%

    Day after tomorrow, 22 July, Monday

    Time Temperature Precipitation Wind Pressure Humidity
    00:00 +16°C° 0 mm 1 mps 756 mmHg 77%
    01:00 +16°C° 0 mm 1 mps 756 mmHg 80%
    02:00 +15°C° 0 mm 1 mps 756 mmHg 81%
    03:00 +15°C° 0 mm 1 mps 756 mmHg 81%
    04:00 +15°C° 0 mm 1 mps 756 mmHg 82%
    05:00 +16°C° 0 mm 1 mps 756 mmHg 76%
    06:00 +19°C° 0 mm 1 mps 756 mmHg 69%
    07:00 +21°C° 0 mm 1 mps 757 mmHg 63%
    08:00 +24°C° 0 mm 1 mps 757 mmHg 54%
    09:00 +27°C° 0 mm 1 mps 757 mmHg 44%
    10:00 +31°C° 0 mm 2 mps 757 mmHg 35%
    11:00 +32°C° 0 mm 2 mps 757 mmHg 32%
    12:00 +34°C° 0 mm 3 mps 757 mmHg 29%
    13:00 +35°C° 0 mm 3 mps 757 mmHg 27%
    14:00 +35°C° 0 mm 3 mps 756 mmHg 27%
    15:00 +34°C° 0 mm 3 mps 756 mmHg 27%
    16:00 +34°C° 0 mm 3 mps 756 mmHg 27%
    17:00 +30°C° 0 mm 3 mps 756 mmHg 33%
    18:00 +28°C° 0 mm 2 mps 756 mmHg 38%
    19:00 +25°C° 0 mm 2 mps 756 mmHg 44%
    20:00 +23°C° 0 mm 2 mps 757 mmHg 50%
    21:00 +20°C° 0 mm 2 mps 757 mmHg 57%
    22:00 +18°C° 0 mm 2 mps 757 mmHg 63%
    23:00 +18°C° 0 mm 1 mps 757 mmHg 67%

    23 July, Tuesday

    Time Temperature Precipitation Wind Pressure Humidity
    00:00 +16°C° 0 mm 1 mps 757 mmHg 71%
    01:00 +16°C° 0 mm 1 mps 757 mmHg 75%
    02:00 +15°C° 0 mm 1 mps 757 mmHg 76%
    03:00 +15°C° 0 mm 1 mps 757 mmHg 78%
    04:00 +15°C° 0 mm 1 mps 757 mmHg 80%
    05:00 +16°C° 0 mm 1 mps 757 mmHg 74%
    06:00 +19°C° 0 mm 1 mps 758 mmHg 68%
    07:00 +20°C° 0 mm 1 mps 758 mmHg 62%
    08:00 +23°C° 0 mm 1 mps 758 mmHg 52%
    09:00 +27°C° 0 mm 2 mps 758 mmHg 43%
    10:00 +30°C° 0 mm 2 mps 758 mmHg 33%
    11:00 +31°C° 0 mm 2 mps 758 mmHg 31%
    12:00 +33°C° 0 mm 3 mps 758 mmHg 29%
    13:00 +34°C° 0 mm 3 mps 758 mmHg 26%
    14:00 +34°C° 0 mm 3 mps 757 mmHg 26%
    15:00 +34°C° 0 mm 3 mps 757 mmHg 25%
    16:00 +34°C° 0 mm 3 mps 757 mmHg 24%
    17:00 +31°C° 0 mm 3 mps 757 mmHg 31%
    18:00 +28°C° 0 mm 3 mps 757 mmHg 38%
    19:00 +25°C° 0 mm 2 mps 757 mmHg 45%
    20:00 +23°C° 0 mm 2 mps 757 mmHg 54%
    21:00 +20°C° 0 mm 2 mps 757 mmHg 63%
    22:00 +18°C° 0 mm 1 mps 757 mmHg 72%
    23:00 +18°C° 0 mm 1 mps 757 mmHg 74%

    24 July, Wednesday

    Time Temperature Precipitation Wind Pressure Humidity
    00:00 +16°C° 0 mm 1 mps 757 mmHg 76%
    01:00 +15°C° 0 mm 1 mps 757 mmHg 78%
    02:00 +15°C° 0 mm 1 mps 757 mmHg 79%
    03:00 +15°C° 0 mm 1 mps 757 mmHg 80%
    04:00 +15°C° 0 mm 1 mps 757 mmHg 81%
    05:00 +18°C° 0 mm 1 mps 757 mmHg 73%
    06:00 +20°C° 0 mm 1 mps 757 mmHg 65%
    07:00 +22°C° 0 mm 1 mps 757 mmHg 57%
    08:00 +25°C° 0 mm 1 mps 757 mmHg 47%
    09:00 +29°C° 0 mm 1 mps 757 mmHg 38%
    10:00 +32°C° 0 mm 1 mps 757 mmHg 28%
    11:00 +35°C° 0 mm 2 mps 757 mmHg 25%
    12:00 +36°C° 0 mm 2 mps 756 mmHg 21%
    13:00 +38°C° 0 mm 3 mps 756 mmHg 17%
    14:00 +37°C° 0 mm 3 mps 755 mmHg 18%
    15:00 +37°C° 0 mm 3 mps 755 mmHg 19%
    16:00 +36°C° 0 mm 3 mps 755 mmHg 21%
    17:00 +33°C° 0 mm 3 mps 755 mmHg 27%
    18:00 +29°C° 0 mm 2 mps 755 mmHg 34%
    19:00 +26°C° 0 mm 2 mps 755 mmHg 40%
    20:00 +23°C° 0 mm 2 mps 755 mmHg 49%
    21:00 +20°C° 0 mm 2 mps 755 mmHg 57%
    22:00 +17°C° 0 mm 2 mps 755 mmHg 66%
    23:00 +16°C° 0 mm 2 mps 755 mmHg 69%

    25 July, Thursday

    Time Temperature Precipitation Wind Pressure Humidity
    00:00 +16°C° 0 mm 2 mps 755 mmHg 73%
    01:00 +15°C° 0 mm 1 mps 755 mmHg 77%
    02:00 +15°C° 0 mm 1 mps 755 mmHg 79%
    03:00 +14°C° 0 mm 1 mps 755 mmHg 80%
    04:00 +14°C° 0 mm 1 mps 755 mmHg 82%
    05:00 +16°C° 0 mm 1 mps 755 mmHg 75%
    06:00 +18°C° 0 mm 1 mps 755 mmHg 69%
    07:00 +20°C° 0 mm 1 mps 755 mmHg 62%
    08:00 +24°C° 0 mm 1 mps 755 mmHg 52%
    09:00 +27°C° 0 mm 1 mps 755 mmHg 41%
    10:00 +30°C° 0 mm 2 mps 755 mmHg 31%
    11:00 +32°C° 0 mm 2 mps 755 mmHg 28%
    12:00 +34°C° 0 mm 3 mps 755 mmHg 26%
    13:00 +35°C° 0 mm 3 mps 755 mmHg 23%
    14:00 +34°C° 0 mm 3 mps 754 mmHg 24%
    15:00 +34°C° 0 mm 3 mps 754 mmHg 25%
    16:00 +33°C° 0 mm 3 mps 754 mmHg 26%
    17:00 +29°C° 0 mm 3 mps 754 mmHg 34%
    18:00 +26°C° 0 mm 2 mps 754 mmHg 42%
    19:00 +23°C° 0 mm 2 mps 754 mmHg 50%
    20:00 +20°C° 0 mm 2 mps 754 mmHg 58%
    21:00 +18°C° 0 mm 2 mps 754 mmHg 66%
    22:00 +16°C° 0 mm 2 mps 754 mmHg 73%
    23:00 +16°C° 0 mm 1 mps 754 mmHg 74%
    Show more